Location: Marcé
(47.5801°N, 0.3280°W)
Time: 23:21:46
(UTC+01:00)

Transit 2A - Pass Details

Date: 05 December 2021
Orbit: 591 x 967 km, 66.7° (Epoch: 23 January)

Event Time Altitude Azimuth Distance (km) Brightness Sun altitude
Rises 00:44:40 0° 202° (SSW) 3,289 - -64.7°
Reaches altitude 10° 00:47:00 10° 199° (SSW) 2,418 - -64.8°
Maximum altitude 00:52:34 65° 119° (ESE) 966 - -64.8°
Drops below altitude 10° 00:58:42 10° 39° (NE) 2,650 - -64.7°
Sets 01:01:21 0° 37° (NE) 3,629 - -64.7°
